Printer-friendly version

IAU Minor Planet Center

Minor Planet Center

MPEC 2008-D35 : 2008 DJ

The following Minor Planet Electronic Circular may be linked-to from your own Web pages, but must not otherwise be redistributed electronically.


Read MPEC 2008-D34 Read MPEC 2008-D36


M.P.E.C. 2008-D35                                Issued 2008 Feb. 25, 23:22 UT

     The Minor Planet Electronic Circulars contain information on unusual
         minor planets and routine data on comets.  They are published
   on behalf of Commission 20 of the International Astronomical Union by the
          Minor Planet Center, Smithsonian Astrophysical Observatory,
                          Cambridge, MA 02138, U.S.A.

             Prepared using the Tamkin Foundation Computer Network

                              MPC@CFA.HARVARD.EDU
          URL http://www.cfa.harvard.edu/iau/mpc.html  ISSN 1523-6714

                                    2008 DJ

Observations:
     K08D00J* C2008 02 25.33729 08 35 24.88 +07 29 01.9          18.0   ED035704
     K08D00J  C2008 02 25.34960 08 35 29.95 +07 28 40.1          17.9   ED035704
     K08D00J  C2008 02 25.36126 08 35 34.80 +07 28 19.1          17.9   ED035704
     K08D00J  C2008 02 25.37298 08 35 39.69 +07 27 57.3          18.0   ED035704
     K08D00J  C2008 02 25.38470 08 35 44.53 +07 27 37.0          17.8   ED035704
     K08D00J  C2008 02 25.93973 08 39 35.34 +07 12 06.2          16.8 R ED035461
     K08D00J  C2008 02 25.94112 08 39 35.86 +07 12 03.9                 ED035461
     K08D00J  C2008 02 25.94272 08 39 36.48 +07 12 01.3                 ED035461
     K08D00J  C2008 02 25.94450 08 39 37.15 +07 11 58.5                 ED035461
     K08D00J  C2008 02 25.94588 08 39 37.68 +07 11 56.2                 ED035461
     K08D00J  C2008 02 25.94728 08 39 38.20 +07 11 54.0                 ED035461
     K08D00J  C2008 02 25.95888 08 39 42.88 +07 11 34.9                 ED035246
     K08D00J  C2008 02 25.95947 08 39 43.11 +07 11 34.0                 ED035246
     K08D00J  C2008 02 25.96000 08 39 43.29 +07 11 33.3                 ED035246
     K08D00J  C2008 02 25.96056 08 39 43.50 +07 11 32.4                 ED035246
     K08D00J  C2008 02 25.96108 08 39 43.71 +07 11 31.4                 ED035246
     K08D00J  C2008 02 25.96201 08 39 44.05 +07 11 30.0                 ED035246
     K08D00J  C2008 02 25.96252 08 39 44.28 +07 11 29.2                 ED035246

Observer details:
246 Klet Observatory-KLENOT.  Observer M. Tichy.  1.06-m KLENOT Telescope
    + CCD.
461 University of Szeged, Piszkesteto Stn. (Konkoly).  Observer K. Sarneczky.
    0.60-m Schmidt + CCD.
704 Lincoln Laboratory ETS, New Mexico.  Observers M. Bezpalko, D. Torres,
    R. Kracke, G. Spitz, J. Kistler.  Measurers J. Stuart, S. Scruggs.  1.0-m
    f/2.15 reflector + CCD.

Orbital elements:
2008 DJ                                             PHA, Earth MOID = 0.0009 AU
Epoch 2008 May 14.0 TT = JDT 2454600.5                  MPC
M  45.18112              (2000.0)            P               Q
n   0.33877210     Peri.  110.30201     +0.31537041     -0.94687007
a   2.0379692      Node   321.13475     +0.82885358     +0.30721052
e   0.6410560      Incl.    5.76917     +0.46210740     +0.09517759
P   2.91           H   20.3           G   0.15           U   9
Residuals in seconds of arc
080225 704  0.2+  0.5+    080225 461  0.3-  0.1-    080225 246  0.2+  0.0
080225 704  0.2-  0.5+    080225 461  0.0   0.1-    080225 246  0.1-  0.2+
080225 704  0.0   0.2+    080225 461  0.1-  0.1-    080225 246  0.1-  0.2+
080225 704  0.3+  0.9-    080225 461  0.1+  0.1-    080225 246  0.1+  0.0
080225 704  0.2-  0.4-    080225 461  0.1-  0.1-    080225 246  0.1-  0.1+
080225 461  0.2-  0.0     080225 246  0.1+  0.0     080225 246  0.5+  0.1+

Ephemeris:
2008 DJ                  a,e,i = 2.04, 0.64, 6                   q = 0.7315
Date    TT    R. A. (2000) Decl.     Delta      r     Elong.  Phase     V
2008 02 24    08 24.70   +08 12.7    0.110    1.086   150.0    27.1    16.9
2008 03 05    09 13.26   +05 01.4    0.215    1.186   152.5    22.7    18.4
2008 03 15    09 33.28   +03 57.5    0.330    1.287   148.2    24.0    19.6
2008 03 25    09 46.98   +03 23.4    0.456    1.386   142.2    26.2    20.5
2008 04 04    09 58.94   +02 55.5    0.593    1.483   135.6    28.1    21.3
2008 04 14    10 10.65   +02 25.0    0.741    1.578   128.9    29.6    21.9

Timothy B. Spahr             (C) Copyright 2008 MPC           M.P.E.C. 2008-D35

Read MPEC 2008-D34 Read MPEC 2008-D36


Our Web policy. Index to the CBAT/MPC/ICQ pages.


Valid HTML 4.01!